{"data":{"norad_id":55978,"epoch":"2026-09-21T23:56:08.494656Z","epoch_age_seconds":51935,"freshness":"FRESH","line1":"1 55978U 23040A   26264.99732054  .00002340  00000+0  95446-4 0  9992","line2":"2 55978  97.3419 192.0106 0003253  95.2641 264.8969 15.25408028194810","mean_motion":15.25408028,"eccentricity":0.0003253,"inclination_deg":97.3419,"raan_deg":192.0106,"arg_perigee_deg":95.2641,"mean_anomaly_deg":264.8969,"bstar":9.5446e-5,"rev_number":19481,"period_min":94.400971646125,"perigee_km":487.32641530124,"apogee_km":491.79453927997,"semimajor_km":6867.6974772906,"source":"CELESTRAK","updated_at":"2026-09-22T09:00:25.609371Z"}}